Hourly Data Report for October 05, 2015

All times are specified in Local Standard Time (LST). Add 1 hour to adjust for Daylight Saving Time where and when it is observed.

ARVIAT A
NUNAVUT

61°05'38.000" N
94°04'18.000" W
10.40 m
2300427
71174
YEK

Download Data

Hourly Data (October 2015)
Hourly Data Report for October 5, 2015
Temp Definition
°C
Dew Point Temp Definition
°C
Rel Hum Definition
%
Wind Dir Definition
10's deg

Wind Spd Definition
km/h
Visibility Definition
km
Stn Press Definition
kPa
Hmdx Definition


Wind Chill Definition


Weather Definition


TIME
00:00 Legend Double Dagger 1.5 0.5 93 4 13 16.1 102.28     LegendNANA
01:00 Legend Double Dagger 1.6 0.1 90 6 11 16.1 102.23     LegendNANA
02:00 Legend Double Dagger 1.5 -0.1 89 5 13 16.1 102.19     LegendNANA
03:00 Legend Double Dagger 0.9 -0.1 93 9 13 16.1 102.13     LegendNANA
04:00 Legend Double Dagger 1.2 -0.1 91 6 13 16.1 102.07     LegendNANA
05:00 Legend Double Dagger 1.5 -0.2 89 8 15 16.1 102.04     LegendNANA
06:00 Legend Double Dagger 1.7 -0.2 87 8 17 16.1 101.99     LegendNANA
07:00 Legend Double Dagger 1.6 -0.2 88 10 15 16.1 101.94     LegendNANA
08:00 Legend Double Dagger 1.7 0.7 93 9 15 16.1 101.88     LegendNANA
09:00 Legend Double Dagger 2.2 1.2 93 9 15 16.1 101.83     LegendNANA
10:00 Legend Double Dagger 2.9 1.9 93 11 26 16.1 101.75     Rain
11:00 Legend Double Dagger 3.1 2.0 92 10 22 16.1 101.68     LegendNANA
12:00 Legend Double Dagger 3.4 2.2 92 10 17 16.1 101.59     LegendNANA
13:00 Legend Double Dagger 4.1 1.9 85 12 24 16.1 101.48     LegendNANA
14:00 Legend Double Dagger 4.0 2.3 88 12 18 16.1 101.40     LegendNANA
15:00 Legend Double Dagger 4.2 2.5 89 12 26 16.1 101.29     Rain
16:00 Legend Double Dagger 3.9 3.0 94 12 22 16.1 101.22     Rain
17:00 Legend Double Dagger 3.8 3.1 95 12 24 16.1 101.13     Rain
18:00 Legend Double Dagger 3.7 3.0 95 12 24 16.1 101.06     Rain
19:00 Legend Double Dagger 3.6 3.2 97 12 24 16.1 100.97     Rain
20:00 Legend Double Dagger 3.7 3.3 97 12 26 16.1 100.90     Rain
21:00 Legend Double Dagger 3.8 3.5 98 11 28 16.1 100.82     Rain
22:00 Legend Double Dagger 3.9 3.6 98 11 24 16.1 100.73     Rain
23:00 Legend Double Dagger 3.9 3.6 98 11 26 11.3 100.64     Rain

Notes on Data Quality.

Legend

  • E = Estimated
  • M = Missing
  • NA = Not Available
  • ‡ = Partner data that is not subject to review by the National Climate Archives
Date modified: